ChubuSat-3 (41339 NORAD) Tracking and Keplerian Element Data

This shows tracking and keplerian element data for the satellite.

Feedback or suggestion? Click here.




ElementValue
Catalog41339
NameChubuSat-3
Epoch Orbit17266
Epoch Day101.53380699
Epoch Year2019
RAAN216.0956
Inclination31.0109
Eccentricity0.0013123
Argument of Perigee154.5998
Mean Anonmoly205.5274
Mean Motion15.00298826
Decay Rate4.12E-06
L11 41339U 16012C 19101.53380699 .00000412 00000-0 25291-4 0 9995
L22 41339 31.0109 216.0956 0013123 154.5998 205.5274 15.00298826172664

Live tracking and technical data element details for ChubuSat-3 (NORAD 41339). ChubuSat-3 can be tracked NOW for your location showing map with azimuth and elevation plus other details from your city location.

Track the satellite on the map from your city or location and see movement details for azimuth, elevation, latitude, longitude, range, height, and movement on the map or in text.







IsCatalogInMostPopularTable: catalog: 41339, numindb: 193
Update: records affected: 1



GetName: 41339 ChubuSat-3

Hit Count: updated at: Sat, 20 Apr 2019 00:27:19 GMT